Vertical_Velocity
-1 11 -1 1 1 2 1 1 1 -1 3 -4 2 1 4 1 -4 2 0 0 1 -2 4 -4 -2 3 -1 0 -2 -2 -2 -2 -3 -3 -2 -0 -1 -1 -2 2 -1 0 -3 0
10 -1 -1 0 0 2 1 1 -1 -1 1 0 -0 6 3 -0 5 1 -1 1 6 2 -1 2 -2 -2 1 1 -2 -3 1 -2 -1 -2 -0 -1 -2 4 1 -2 0 -2 -0 -3
1 5 -1 1 -1 3 -1 2 -0 4 -0 3 2 3 -3 4 -3 -2 -1 0 -0 -3 3 1 2 1 1 -2 0 0 -1 -1 -1 1 -2 -2 3 1 5 -4 1 -2 -2 -1
-2 -3 0 1 0 5 3 1 1 0 4 6 6 11 -1 1 1 -3 0 -0 0 -0 5 -3 4 -3 2 0 0 -1 -1 -0 -1 -1 -3 -6 -2 -2 3 -4 2 7 -4 1
2 1 2 4 -6 1 -0 1 1 1 1 6 2 4 12 -3 -4 1 1 2 3 2 -2 6 -0 4 -3 -2 1 2 2 -1 4 -1 2 -3 2 -6 -12 -1 1 -8 3 -4
-1 -3 3 -4 -1 0 1 4 3 2 3 6 3 3 8 1 10 -1 -1 0 2 1 3 -3 -0 4 5 8 2 7 3 -2 -3 -1 3 -1 2 -1 2 -3 4 -5 -4 -3
4 -2 -1 3 8 3 8 10 2 10 9 9 1 -4 10 2 2 5 4 2 2 3 -3 7 1 3 2 0 2 -0 0 3 6 5 -2 -5 -2 -1 -5 3 -4 -2 13 1
-1 18 3 3 1 3 -3 9 4 -2 1 5 2 2 16 2 2 2 2 4 1 -0 3 -2 7 3 1 2 1 1 2 0 -1 -0 1 3 2 3 1 2 -5 -4 -2 -2
1 7 4 -0 -0 9 6 6 12 3 2 7 3 10 11 1 1 -1 0 -1 1 -0 1 1 2 -6 7 -2 3 2 4 1 3 6 3 1 2 -2 -1 4 11 3 -5 -16
2 8 1 5 3 4 11 6 14 2 2 1 5 0 7 2 2 1 -1 1 1 1 -2 -0 1 1 -2 4 4 2 1 1 1 -1 1 3 0 -1 1 6 -3 -2 5 7
0 10 14 9 3 3 7 5 3 8 4 6 1 9 2 1 1 2 3 2 2 1 1 -1 -2 0 -1 1 3 2 0 1 3 4 3 -2 -3 -7 -11 -10 -7 0 3 0
-5 1 1 5 2 1 1 1 2 7 4 2 7 12 -0 -0 0 -0 2 1 0 -0 -0 -2 -1 -0 -3 -3 -5 2 3 16 22 21 10 5 12 14 20 12 -1 -1 1 -2
-2 -1 3 14 20 7 2 1 1 1 3 -3 7 11 2 0 0 -0 1 -1 1 -0 -2 -1 -2 -3 -2 -4 -4 -1 0 -1 0 -6 -0 3 12 1 4 6 6 8 6 6
2 1 6 7 8 2 2 1 0 5 5 0 -2 7 5 2 0 0 -0 0 0 -0 0 -1 1 -1 -2 -2 0 1 -1 -3 -8 -7 -2 -11 -7 -7 -10 -2 -3 3 13 6
6 2 1 1 0 0 -0 -1 -0 3 1 9 1 1 1 -0 0 1 1 -1 0 -0 -1 -1 -0 0 0 -2 -3 -2 -2 -2 1 3 3 -3 -5 -7 -3 -4 -3 -6 -3 -2
0 3 0 2 0 0 1 0 0 0 -1 0 0 2 -1 -0 -1 1 1 -0 -1 1 -0 -2 -2 -2 -1 -1 -2 -2 -1 -0 1 -1 2 4 5 4 2 -3 -7 -7 -4 -2
2 -0 3 -2 -0 1 7 -6 -1 0 0 3 2 8 -0 1 0 0 -1 1 -1 1 -0 -1 -0 -1 -4 -1 1 -2 -2 1 1 0 1 1 1 -2 -0 -2 -7 -2 -1 -1
0 2 1 1 4 7 13 0 0 1 -1 0 0 0 -0 0 -1 -1 -2 2 -0 -1 -3 -4 -2 -3 -1 -3 -2 -0 1 -1 -1 3 1 1 -0 0 0 1 1 5 2 2
1 1 2 4 -0 -0 7 0 -1 -1 -4 -2 -0 -0 -1 -1 -2 2 -5 -2 -0 -0 -1 1 -1 -1 -1 -2 1 -3 -2 3 2 -2 2 3 1 -0 2 1 2 2 -1 -1
2 2 9 4 6 0 9 3 -2 -1 -0 -2 -1 -1 0 -2 3 1 -6 -3 -2 0 -0 -1 0 -5 1 -3 3 4 -3 -1 2 4 -0 2 3 0 -0 2 -4 -3 -1 -3
3 3 -1 0 -0 7 2 -1 -1 14 16 -0 -1 -1 -1 3 6 -5 -2 -3 1 -4 -5 -5 2 6 2 -5 -2 -5 -3 -2 -0 -1 -2 -2 3 3 0 -0 -1 -5 -0 1
-3 1 -1 2 3 3 -3 8 8 7 2 -2 -2 -1 -1 -2 -1 0 -3 -2 -4 -0 -4 -3 -2 -2 2 2 -2 -5 -3 -2 -2 -1 0 -1 -2 -0 1 3 1 2 -2 4
6 7 5 10 8 1 -4 0 -4 -0 -2 -0 -2 1 -1 0 1 -2 1 -0 -1 -2 -3 -4 1 -2 -0 -2 2 -2 -4 -3 -2 -3 -7 1 1 -3 1 1 0 -1 1 -3
2 -1 2 7 7 -1 1 -0 -1 -2 1 -2 -1 -1 -1 1 0 1 -2 -2 -0 -0 -2 -1 1 -1 -5 2 1 1 -3 0 1 -2 -2 -3 -1 1 2 0 4 11 4 -2
5 2 -2 2 4 2 1 -1 -1 -1 -2 -1 -3 -2 -0 -1 -0 -0 0 -1 0 -0 -1 -2 -1 -2 -3 -1 -0 0 0 2 0 -1 0 -3 -2 -5 3 -0 -6 4 6 -3
-5 -3 1 1 -2 -4 -0 -3 -1 -1 -1 -2 -2 1 1 1 -1 -1 -1 1 -3 -1 -1 -1 -1 1 -2 -0 -1 -4 -3 0 1 -2 -2 3 -2 3 0 3 -6 11 -6 -3
Height
1530 1528 1525 1517 1525 1527 1529 1529 1528 1520 1523 1524 1530 1531 1533 1533 1529 1528 1530 1532 1534 1538 1541 1545 1549 1552 1554 1558 1560 1561 1564 1567 1569 1571 1574 1577 1580 1581 1582 1583 1583 1584 1585 1586
1527 1527 1518 1527 1528 1528 1525 1527 1522 1517 1523 1521 1526 1532 1535 1535 1535 1535 1534 1531 1531 1533 1536 1539 1543 1547 1550 1553 1555 1558 1561 1564 1566 1569 1571 1575 1578 1579 1580 1582 1582 1582 1583 1584
1522 1519 1526 1528 1526 1526 1519 1522 1522 1527 1520 1519 1523 1530 1533 1532 1535 1536 1535 1533 1531 1531 1530 1534 1538 1542 1545 1549 1551 1552 1556 1559 1563 1566 1569 1572 1574 1576 1577 1578 1580 1580 1580 1581
1520 1517 1525 1525 1525 1521 1522 1517 1522 1523 1523 1528 1517 1536 1534 1533 1534 1535 1534 1532 1530 1527 1526 1529 1532 1537 1541 1544 1547 1548 1550 1554 1557 1561 1565 1567 1570 1573 1576 1577 1578 1579 1578 1578
1518 1521 1523 1525 1519 1518 1519 1518 1519 1520 1519 1521 1519 1522 1537 1533 1535 1535 1535 1533 1530 1527 1525 1525 1528 1532 1536 1540 1542 1545 1546 1548 1552 1555 1558 1561 1565 1568 1571 1573 1574 1573 1575 1574
1516 1520 1521 1516 1516 1519 1518 1518 1514 1514 1514 1527 1525 1519 1544 1543 1546 1541 1538 1535 1531 1527 1524 1523 1525 1529 1533 1537 1538 1541 1541 1543 1547 1551 1553 1556 1559 1562 1565 1567 1568 1569 1570 1571
1512 1512 1513 1517 1517 1513 1517 1514 1521 1528 1527 1532 1523 1527 1549 1546 1547 1545 1542 1539 1536 1532 1528 1525 1526 1529 1531 1535 1538 1539 1540 1541 1543 1545 1547 1551 1554 1557 1559 1561 1563 1565 1566 1567
1513 1528 1511 1511 1510 1507 1509 1502 1515 1546 1531 1529 1525 1542 1547 1546 1548 1547 1545 1543 1541 1537 1534 1532 1531 1531 1531 1532 1534 1536 1537 1538 1540 1542 1543 1546 1549 1551 1552 1554 1557 1561 1562 1564
1512 1516 1512 1511 1510 1509 1509 1512 1500 1511 1514 1518 1524 1538 1539 1542 1546 1548 1547 1546 1544 1541 1538 1536 1535 1533 1532 1532 1533 1534 1535 1535 1537 1539 1541 1542 1544 1546 1549 1550 1551 1552 1554 1557
1507 1517 1507 1510 1510 1510 1507 1507 1513 1505 1532 1534 1523 1529 1526 1543 1547 1548 1548 1548 1547 1545 1542 1540 1538 1536 1534 1533 1533 1533 1534 1534 1536 1538 1539 1539 1540 1541 1543 1545 1544 1546 1548 1550
1503 1506 1511 1507 1510 1510 1508 1506 1507 1504 1510 1524 1526 1522 1532 1543 1547 1548 1549 1550 1549 1547 1546 1544 1541 1538 1536 1535 1534 1534 1534 1534 1534 1535 1536 1536 1536 1535 1535 1537 1539 1539 1540 1541
1505 1500 1511 1507 1514 1513 1510 1510 1507 1515 1523 1512 1519 1527 1538 1542 1547 1549 1550 1551 1551 1550 1548 1547 1544 1541 1537 1535 1533 1533 1533 1533 1532 1533 1533 1534 1533 1533 1532 1528 1529 1531 1533 1532
1506 1503 1519 1520 1514 1512 1510 1513 1510 1507 1508 1518 1529 1529 1538 1545 1547 1550 1551 1552 1552 1551 1550 1548 1546 1544 1542 1538 1536 1534 1533 1532 1530 1528 1526 1526 1529 1529 1528 1529 1527 1527 1526 1526
1509 1500 1506 1522 1522 1509 1518 1516 1515 1512 1516 1513 1513 1526 1540 1542 1545 1548 1550 1551 1551 1551 1550 1549 1547 1546 1543 1541 1538 1535 1532 1530 1529 1526 1525 1526 1525 1523 1523 1522 1519 1521 1522 1522
1504 1507 1512 1514 1516 1514 1514 1518 1519 1519 1517 1526 1517 1522 1528 1541 1545 1547 1549 1549 1549 1549 1549 1548 1546 1545 1543 1540 1537 1535 1532 1529 1527 1525 1523 1521 1522 1522 1520 1519 1517 1517 1516 1515
1507 1514 1514 1523 1520 1517 1520 1521 1522 1523 1523 1524 1524 1527 1536 1543 1546 1546 1547 1548 1547 1546 1547 1546 1544 1542 1540 1538 1535 1532 1530 1527 1525 1523 1522 1520 1517 1515 1514 1513 1511 1510 1510 1509
1508 1511 1518 1516 1521 1524 1528 1518 1521 1523 1525 1523 1530 1526 1537 1540 1543 1545 1545 1546 1545 1544 1544 1543 1541 1539 1536 1533 1531 1528 1525 1523 1522 1519 1518 1516 1514 1511 1508 1506 1505 1504 1501 1500
1511 1512 1512 1515 1527 1538 1520 1522 1523 1524 1526 1528 1531 1535 1540 1542 1544 1545 1545 1545 1545 1544 1542 1539 1536 1534 1531 1528 1525 1522 1520 1518 1517 1516 1514 1511 1510 1508 1506 1503 1500 1497 1495 1494
1509 1510 1515 1522 1521 1516 1524 1525 1525 1527 1523 1528 1531 1536 1539 1542 1542 1538 1543 1545 1544 1541 1538 1535 1532 1529 1525 1523 1520 1518 1515 1513 1512 1510 1509 1506 1503 1502 1501 1499 1498 1495 1491 1488
1509 1510 1511 1513 1522 1525 1515 1521 1527 1528 1527 1528 1533 1536 1539 1541 1537 1533 1541 1542 1540 1537 1534 1531 1527 1524 1521 1518 1515 1512 1510 1507 1506 1505 1502 1500 1498 1496 1495 1494 1491 1490 1486 1482
1512 1509 1511 1510 1515 1511 1518 1526 1529 1534 1531 1532 1535 1538 1540 1541 1542 1542 1540 1537 1535 1533 1529 1526 1522 1519 1517 1513 1510 1506 1505 1503 1500 1497 1495 1492 1491 1489 1489 1487 1485 1483 1480 1477
1508 1510 1509 1508 1516 1521 1521 1528 1528 1528 1531 1534 1537 1539 1541 1542 1541 1540 1538 1535 1531 1528 1524 1522 1518 1515 1512 1508 1505 1501 1499 1496 1493 1490 1487 1485 1483 1482 1482 1481 1479 1477 1475 1472
1512 1504 1502 1507 1509 1516 1520 1522 1526 1528 1531 1534 1536 1538 1539 1539 1538 1537 1535 1533 1530 1526 1521 1517 1514 1510 1507 1503 1500 1495 1492 1488 1484 1481 1478 1477 1476 1475 1476 1476 1475 1474 1471 1467
1511 1513 1506 1514 1518 1518 1521 1525 1527 1529 1531 1534 1535 1536 1536 1537 1536 1535 1532 1529 1526 1522 1516 1513 1509 1504 1501 1498 1494 1489 1485 1481 1478 1474 1472 1470 1469 1468 1469 1470 1471 1469 1467 1464
1506 1512 1509 1512 1518 1521 1522 1524 1526 1529 1531 1533 1534 1535 1535 1534 1534 1532 1530 1527 1523 1518 1513 1508 1504 1499 1496 1492 1488 1484 1480 1476 1473 1470 1467 1466 1465 1464 1464 1463 1464 1464 1461 1459
1507 1504 1506 1502 1507 1513 1513 1520 1524 1527 1530 1531 1532 1533 1533 1532 1531 1529 1527 1524 1519 1514 1510 1504 1500 1496 1492 1488 1484 1480 1476 1473 1469 1466 1463 1462 1459 1459 1458 1457 1458 1458 1455 1454